Location: Unspecified
(49.2170°N, 0.0000°E)
Time: 05:37:14
(UTC+00:00)

S-56A Canister/Altair - Pass Details

Date: 25 January 2021
Orbit: 631 x 2501 km, 38.9° (Epoch: 02 March)

Event Time Altitude Azimuth Distance (km) Brightness Sun altitude
Exits shadow 04:39:52 22° 160° (SSE) 1,508 9.1 -29.2°
Drops below altitude 10° 04:42:54 10° 128° (SE) 2,336 10.6 -28.7°
Sets 04:46:06 0° 115° (ESE) 3,499 11.8 -28.2°
